Time,TemperatureF,DewpointF,PressureIn,WindDirection,WindDirectionDegrees,WindSpeedMPH,WindSpeedGustMPH,Humidity,HourlyPrecipIn,Conditions,Clouds,dailyrainin,SoftwareType,DateUTC
2013-03-04 00:04:00,37.6,14.9,23.36,West,275,2.2,2.7,39,0.00,,---,0.00,VWS V14.00,2013-03-04 07:04:00,
2013-03-04 00:09:00,37.4,14.7,23.36,West,269,2.2,2.7,39,0.00,,---,0.00,VWS V14.00,2013-03-04 07:09:00,
2013-03-04 00:14:00,37.4,14.7,23.36,WSW,241,2.7,2.7,39,0.00,,---,0.00,VWS V14.00,2013-03-04 07:14:00,
2013-03-04 00:19:00,37.2,15.1,23.36,SW,221,3.6,3.6,40,0.00,,---,0.00,VWS V14.00,2013-03-04 07:19:00,
2013-03-04 00:24:00,37.2,15.1,23.36,SW,233,4.5,4.5,40,0.00,,---,0.00,VWS V14.00,2013-03-04 07:24:00,
2013-03-04 00:29:00,37.2,15.1,23.36,West,276,0.0,0.0,40,0.00,,---,0.00,VWS V14.00,2013-03-04 07:29:00,
2013-03-04 00:34:00,37.0,15.0,23.36,SW,224,3.6,4.0,40,0.00,,---,0.00,VWS V14.00,2013-03-04 07:34:00,
2013-03-04 00:39:00,37.0,15.0,23.36,SW,229,2.7,4.0,40,0.00,,---,0.00,VWS V14.00,2013-03-04 07:39:00,
2013-03-04 00:45:00,36.9,14.8,23.36,WSW,257,3.1,3.1,40,0.00,,---,0.00,VWS V14.00,2013-03-04 07:45:00,
2013-03-04 00:50:00,36.7,14.6,23.36,West,268,0.0,0.0,40,0.00,,---,0.00,VWS V14.00,2013-03-04 07:50:00,
2013-03-04 00:55:00,36.3,14.3,23.36,SW,221,0.0,2.7,40,0.00,,---,0.00,VWS V14.00,2013-03-04 07:55:00,
2013-03-04 01:00:00,36.1,14.2,23.36,SW,214,3.6,4.9,40,0.00,,---,0.00,VWS V14.00,2013-03-04 08:00:00,
2013-03-04 01:05:00,36.1,14.2,23.36,WSW,249,2.7,2.7,40,0.00,,---,0.00,VWS V14.00,2013-03-04 08:05:00,
2013-03-04 01:10:00,36.0,14.0,23.36,SW,229,2.2,2.2,40,0.00,,---,0.00,VWS V14.00,2013-03-04 08:10:00,
2013-03-04 01:15:00,36.0,14.0,23.33,SSW,192,4.0,4.0,40,0.00,,---,0.00,VWS V14.00,2013-03-04 08:15:00,
2013-03-04 01:20:00,35.8,13.8,23.33,WSW,254,3.1,3.1,40,0.00,,---,0.00,VWS V14.00,2013-03-04 08:20:00,
2013-03-04 01:25:00,35.8,13.8,23.33,West,276,3.1,3.1,40,0.00,,---,0.00,VWS V14.00,2013-03-04 08:25:00,
2013-03-04 01:30:00,35.8,13.8,23.36,WNW,291,0.0,3.1,40,0.00,,---,0.00,VWS V14.00,2013-03-04 08:30:00,
2013-03-04 01:35:00,35.8,13.8,23.36,SW,233,2.2,2.2,40,0.00,,---,0.00,VWS V14.00,2013-03-04 08:35:00,
2013-03-04 01:40:00,35.6,13.7,23.36,West,265,3.6,4.0,40,0.00,,---,0.00,VWS V14.00,2013-03-04 08:40:00,
2013-03-04 01:46:00,35.4,13.5,23.36,SW,234,2.7,2.7,40,0.00,,---,0.00,VWS V14.00,2013-03-04 08:46:00,
2013-03-04 01:51:00,35.4,13.5,23.36,SW,234,3.6,3.6,40,0.00,,---,0.00,VWS V14.00,2013-03-04 08:51:00,
2013-03-04 01:56:00,35.4,13.5,23.36,WSW,238,0.0,0.0,40,0.00,,---,0.00,VWS V14.00,2013-03-04 08:56:00,
2013-03-04 02:01:00,35.1,13.2,23.33,NW,312,3.1,3.1,40,0.00,,---,0.00,VWS V14.00,2013-03-04 09:01:00,
2013-03-04 02:06:00,35.1,13.2,23.33,SW,216,5.8,8.3,40,0.00,,---,0.00,VWS V14.00,2013-03-04 09:06:00,
2013-03-04 02:11:00,34.9,13.0,23.33,WNW,292,3.6,3.6,40,0.00,,---,0.00,VWS V14.00,2013-03-04 09:11:00,
2013-03-04 02:16:00,34.9,13.0,23.33,NW,305,4.9,4.9,40,0.00,,---,0.00,VWS V14.00,2013-03-04 09:16:00,
2013-03-04 02:21:00,34.9,13.0,23.33,West,279,3.1,3.6,40,0.00,,---,0.00,VWS V14.00,2013-03-04 09:21:00,
2013-03-04 02:26:00,34.7,12.9,23.33,West,275,2.2,2.2,40,0.00,,---,0.00,VWS V14.00,2013-03-04 09:26:00,
2013-03-04 02:31:00,34.5,12.7,23.33,WNW,289,2.2,2.7,40,0.00,,---,0.00,VWS V14.00,2013-03-04 09:31:00,
2013-03-04 02:36:00,34.3,12.5,23.33,WNW,287,0.0,0.0,40,0.00,,---,0.00,VWS V14.00,2013-03-04 09:36:00,
2013-03-04 02:41:00,34.2,12.4,23.33,WSW,242,2.2,3.6,40,0.00,,---,0.00,VWS V14.00,2013-03-04 09:41:00,
2013-03-04 02:46:00,34.3,12.5,23.33,WNW,290,0.0,0.0,40,0.00,,---,0.00,VWS V14.00,2013-03-04 09:46:00,
2013-03-04 02:51:00,34.3,12.5,23.33,NW,321,3.1,4.0,40,0.00,,---,0.00,VWS V14.00,2013-03-04 09:51:00,
2013-03-04 02:56:00,34.3,12.5,23.33,West,276,0.0,0.0,40,0.00,,---,0.00,VWS V14.00,2013-03-04 09:56:00,
2013-03-04 03:01:00,34.3,12.5,23.33,WNW,292,0.0,0.0,40,0.00,,---,0.00,VWS V14.00,2013-03-04 10:01:00,
2013-03-04 03:07:00,34.2,12.4,23.33,West,264,3.6,3.6,40,0.00,,---,0.00,VWS V14.00,2013-03-04 10:07:00,
2013-03-04 03:12:00,34.2,12.4,23.33,West,279,4.0,4.0,40,0.00,,---,0.00,VWS V14.00,2013-03-04 10:12:00,
2013-03-04 03:17:00,34.2,12.4,23.33,West,260,0.0,0.0,40,0.00,,---,0.00,VWS V14.00,2013-03-04 10:17:00,
2013-03-04 03:22:00,34.0,12.2,23.33,WNW,291,2.2,2.2,40,0.00,,---,0.00,VWS V14.00,2013-03-04 10:22:00,
2013-03-04 03:27:00,33.8,12.1,23.33,West,271,0.0,0.0,40,0.00,,---,0.00,VWS V14.00,2013-03-04 10:27:00,
2013-03-04 03:32:00,33.6,12.4,23.33,West,273,2.2,2.2,41,0.00,,---,0.00,VWS V14.00,2013-03-04 10:32:00,
2013-03-04 03:37:00,33.3,12.1,23.33,West,273,0.0,0.0,41,0.00,,---,0.00,VWS V14.00,2013-03-04 10:37:00,
2013-03-04 03:42:00,33.1,12.0,23.33,West,273,0.0,0.0,41,0.00,,---,0.00,VWS V14.00,2013-03-04 10:42:00,
2013-03-04 03:47:00,32.9,11.8,23.33,West,273,0.0,0.0,41,0.00,,---,0.00,VWS V14.00,2013-03-04 10:47:00,
2013-03-04 03:52:00,32.9,11.8,23.33,West,273,0.0,0.0,41,0.00,,---,0.00,VWS V14.00,2013-03-04 10:52:00,
2013-03-04 03:57:00,32.9,11.8,23.33,West,273,0.0,0.0,41,0.00,,---,0.00,VWS V14.00,2013-03-04 10:57:00,
2013-03-04 04:03:00,32.9,11.8,23.33,West,273,0.0,0.0,41,0.00,,---,0.00,VWS V14.00,2013-03-04 11:03:00,
2013-03-04 04:08:00,32.9,11.8,23.33,West,273,0.0,0.0,41,0.00,,---,0.00,VWS V14.00,2013-03-04 11:08:00,
2013-03-04 04:13:00,33.1,12.0,23.33,WNW,301,0.0,0.0,41,0.00,,---,0.00,VWS V14.00,2013-03-04 11:13:00,
2013-03-04 04:18:00,33.3,12.1,23.33,WNW,302,0.0,0.0,41,0.00,,---,0.00,VWS V14.00,2013-03-04 11:18:00,
2013-03-04 04:23:00,33.4,12.3,23.33,WNW,301,0.0,3.6,41,0.00,,---,0.00,VWS V14.00,2013-03-04 11:23:00,
2013-03-04 04:28:00,33.6,12.4,23.33,NW,317,3.6,3.6,41,0.00,,---,0.00,VWS V14.00,2013-03-04 11:28:00,
2013-03-04 04:33:00,33.6,12.4,23.33,WNW,292,0.0,3.6,41,0.00,,---,0.00,VWS V14.00,2013-03-04 11:33:00,
2013-03-04 04:38:00,33.8,12.1,23.33,West,261,0.0,0.0,40,0.00,,---,0.00,VWS V14.00,2013-03-04 11:38:00,
2013-03-04 04:43:00,33.8,12.1,23.33,West,263,0.0,0.0,40,0.00,,---,0.00,VWS V14.00,2013-03-04 11:43:00,
2013-03-04 04:48:00,33.8,12.1,23.33,West,260,0.0,2.2,40,0.00,,---,0.00,VWS V14.00,2013-03-04 11:48:00,
2013-03-04 04:53:00,33.8,12.1,23.33,WNW,289,2.7,2.7,40,0.00,,---,0.00,VWS V14.00,2013-03-04 11:53:00,
2013-03-04 04:58:00,34.2,12.4,23.33,WNW,289,2.2,2.7,40,0.00,,---,0.00,VWS V14.00,2013-03-04 11:58:00,
2013-03-04 05:03:00,34.5,12.7,23.33,WNW,300,2.7,2.7,40,0.00,,---,0.00,VWS V14.00,2013-03-04 12:03:00,
2013-03-04 05:08:00,35.1,13.2,23.33,WNW,299,2.7,4.9,40,0.00,,---,0.00,VWS V14.00,2013-03-04 12:08:00,
2013-03-04 05:13:00,35.4,13.5,23.33,NW,314,2.2,2.7,40,0.00,,---,0.00,VWS V14.00,2013-03-04 12:13:00,
2013-03-04 05:18:00,35.8,13.8,23.33,West,270,0.0,2.2,40,0.00,,---,0.00,VWS V14.00,2013-03-04 12:18:00,
2013-03-04 05:23:00,35.8,13.8,23.33,West,267,2.2,5.4,40,0.00,,---,0.00,VWS V14.00,2013-03-04 12:23:00,
2013-03-04 05:28:00,36.0,14.0,23.33,SW,236,2.2,3.1,40,0.00,,---,0.00,VWS V14.00,2013-03-04 12:28:00,
2013-03-04 05:33:00,36.0,14.0,23.33,West,269,2.7,4.9,40,0.00,,---,0.00,VWS V14.00,2013-03-04 12:33:00,
2013-03-04 05:38:00,36.1,14.2,23.33,WNW,287,3.1,3.1,40,0.00,,---,0.00,VWS V14.00,2013-03-04 12:38:00,
2013-03-04 05:44:00,36.1,14.2,23.33,NW,306,2.7,4.0,40,0.00,,---,0.00,VWS V14.00,2013-03-04 12:44:00,
2013-03-04 05:49:00,36.1,14.2,23.33,WNW,290,3.6,4.9,40,0.00,,---,0.00,VWS V14.00,2013-03-04 12:49:00,
2013-03-04 05:54:00,36.3,14.3,23.33,West,276,3.1,6.3,40,0.00,,---,0.00,VWS V14.00,2013-03-04 12:54:00,
2013-03-04 05:59:00,36.3,14.3,23.33,NW,315,5.8,5.8,40,0.00,,---,0.00,VWS V14.00,2013-03-04 12:59:00,
2013-03-04 06:04:00,36.3,14.3,23.33,West,279,4.9,4.9,40,0.00,,---,0.00,VWS V14.00,2013-03-04 13:04:00,
2013-03-04 06:09:00,36.3,14.3,23.33,SW,234,4.9,4.9,40,0.00,,---,0.00,VWS V14.00,2013-03-04 13:09:00,
2013-03-04 06:14:00,36.1,14.2,23.33,WSW,250,3.1,3.1,40,0.00,,---,0.00,VWS V14.00,2013-03-04 13:14:00,
2013-03-04 06:19:00,36.0,14.0,23.33,West,279,2.7,3.1,40,0.00,,---,0.00,VWS V14.00,2013-03-04 13:19:00,
2013-03-04 06:24:00,35.6,13.7,23.33,WSW,257,2.7,2.7,40,0.00,,---,0.00,VWS V14.00,2013-03-04 13:24:00,
2013-03-04 06:29:00,35.4,13.5,23.33,WSW,257,2.2,2.2,40,0.00,,---,0.00,VWS V14.00,2013-03-04 13:29:00,
2013-03-04 06:34:00,35.1,13.2,23.33,West,276,2.2,2.2,40,0.00,,---,0.00,VWS V14.00,2013-03-04 13:34:00,
2013-03-04 06:39:00,34.7,12.9,23.33,WSW,252,0.0,0.0,40,0.00,,---,0.00,VWS V14.00,2013-03-04 13:39:00,
2013-03-04 06:44:00,34.3,12.5,23.33,WSW,254,0.0,0.0,40,0.00,,---,0.00,VWS V14.00,2013-03-04 13:44:00,
2013-03-04 06:49:00,34.0,12.2,23.33,WSW,254,0.0,0.0,40,0.00,,---,0.00,VWS V14.00,2013-03-04 13:49:00,
2013-03-04 06:54:00,33.6,12.4,23.33,WSW,237,0.0,2.7,41,0.00,,---,0.00,VWS V14.00,2013-03-04 13:54:00,
2013-03-04 06:59:00,33.3,12.1,23.33,WSW,238,0.0,0.0,41,0.00,,---,0.00,VWS V14.00,2013-03-04 13:59:00,
2013-03-04 07:04:00,33.1,12.0,23.33,WSW,238,0.0,0.0,41,0.00,,---,0.00,VWS V14.00,2013-03-04 14:04:00,
2013-03-04 07:09:00,32.7,11.6,23.33,WSW,238,0.0,0.0,41,0.00,,---,0.00,VWS V14.00,2013-03-04 14:09:00,
2013-03-04 07:15:00,32.7,11.6,23.33,WSW,238,0.0,0.0,41,0.00,,---,0.00,VWS V14.00,2013-03-04 14:15:00,
2013-03-04 07:20:00,32.5,11.5,23.33,WSW,253,0.0,0.0,41,0.00,,---,0.00,VWS V14.00,2013-03-04 14:20:00,
2013-03-04 07:25:00,32.5,11.5,23.33,WSW,258,2.7,2.7,41,0.00,,---,0.00,VWS V14.00,2013-03-04 14:25:00,
2013-03-04 07:30:00,33.1,12.0,23.33,West,267,2.7,4.0,41,0.00,,---,0.00,VWS V14.00,2013-03-04 14:30:00,
2013-03-04 07:35:00,33.4,12.3,23.33,WSW,258,2.7,6.3,41,0.00,,---,0.00,VWS V14.00,2013-03-04 14:35:00,
2013-03-04 07:40:00,33.8,12.1,23.33,WSW,258,2.2,3.6,40,0.00,,---,0.00,VWS V14.00,2013-03-04 14:40:00,
2013-03-04 07:45:00,34.3,12.5,23.33,NW,325,7.6,7.6,40,0.00,,---,0.00,VWS V14.00,2013-03-04 14:45:00,
2013-03-04 07:50:00,34.9,13.0,23.33,West,280,2.7,3.1,40,0.00,,---,0.00,VWS V14.00,2013-03-04 14:50:00,
2013-03-04 07:55:00,35.2,13.4,23.33,West,267,2.7,3.1,40,0.00,,---,0.00,VWS V14.00,2013-03-04 14:55:00,
2013-03-04 08:00:00,35.6,13.7,23.33,NW,307,2.2,4.0,40,0.00,,---,0.00,VWS V14.00,2013-03-04 15:00:00,
2013-03-04 08:05:00,36.1,14.2,23.33,WNW,299,3.6,5.4,40,0.00,,---,0.00,VWS V14.00,2013-03-04 15:05:00,
2013-03-04 08:10:00,36.7,14.6,23.33,SW,236,3.1,3.1,40,0.00,,---,0.00,VWS V14.00,2013-03-04 15:10:00,
2013-03-04 08:15:00,37.2,15.1,23.33,West,277,4.0,4.0,40,0.00,,---,0.00,VWS V14.00,2013-03-04 15:15:00,
2013-03-04 08:20:00,37.8,15.0,23.33,NNW,333,7.6,7.6,39,0.00,,---,0.00,VWS V14.00,2013-03-04 15:20:00,
2013-03-04 08:25:00,38.3,15.5,23.33,WNW,296,4.0,6.3,39,0.00,,---,0.00,VWS V14.00,2013-03-04 15:25:00,
2013-03-04 08:30:00,38.8,16.0,23.33,WNW,285,5.4,5.4,39,0.00,,---,0.00,VWS V14.00,2013-03-04 15:30:00,
2013-03-04 08:35:00,39.4,16.5,23.33,NNW,332,4.0,4.0,39,0.00,,---,0.00,VWS V14.00,2013-03-04 15:35:00,
2013-03-04 08:40:00,39.9,17.0,23.33,SW,226,2.7,3.1,39,0.00,,---,0.00,VWS V14.00,2013-03-04 15:40:00,
2013-03-04 08:45:00,40.5,17.5,23.33,WSW,248,4.0,4.9,39,0.00,,---,0.00,VWS V14.00,2013-03-04 15:45:00,
2013-03-04 08:50:00,40.8,17.8,23.33,WNW,302,7.6,7.6,39,0.00,,---,0.00,VWS V14.00,2013-03-04 15:50:00,
2013-03-04 08:55:00,41.2,18.1,23.33,West,268,4.9,5.8,39,0.00,,---,0.00,VWS V14.00,2013-03-04 15:55:00,
2013-03-04 09:01:00,41.7,18.6,23.33,West,271,3.6,3.6,39,0.00,,---,0.00,VWS V14.00,2013-03-04 16:01:00,
2013-03-04 09:06:00,42.1,18.9,23.33,NW,318,3.6,8.7,39,0.00,,---,0.00,VWS V14.00,2013-03-04 16:06:00,
2013-03-04 09:11:00,42.4,19.2,23.33,SW,227,5.4,6.3,39,0.00,,---,0.00,VWS V14.00,2013-03-04 16:11:00,
2013-03-04 09:16:00,43.0,19.1,23.33,NW,321,3.6,8.3,38,0.00,,---,0.00,VWS V14.00,2013-03-04 16:16:00,
2013-03-04 09:21:00,43.5,19.6,23.33,NW,310,6.7,7.6,38,0.00,,---,0.00,VWS V14.00,2013-03-04 16:21:00,
2013-03-04 09:26:00,44.1,20.1,23.33,WNW,290,8.1,10.1,38,0.00,,---,0.00,VWS V14.00,2013-03-04 16:26:00,
2013-03-04 09:31:00,44.6,20.6,23.36,NW,320,5.4,6.3,38,0.00,,---,0.00,VWS V14.00,2013-03-04 16:31:00,
2013-03-04 09:36:00,45.5,21.4,23.36,NW,313,2.7,3.6,38,0.00,,---,0.00,VWS V14.00,2013-03-04 16:36:00,
2013-03-04 09:41:00,46.2,22.0,23.36,WNW,301,3.1,6.3,38,0.00,,---,0.00,VWS V14.00,2013-03-04 16:41:00,
2013-03-04 09:46:00,45.7,21.5,23.36,NNW,338,4.0,4.0,38,0.00,,---,0.00,VWS V14.00,2013-03-04 16:46:00,
2013-03-04 09:51:00,45.3,21.2,23.36,WNW,293,5.8,5.8,38,0.00,,---,0.00,VWS V14.00,2013-03-04 16:51:00,
2013-03-04 09:56:00,46.0,21.9,23.36,WSW,254,3.1,4.9,38,0.00,,---,0.00,VWS V14.00,2013-03-04 16:56:00,
2013-03-04 10:01:00,47.5,22.5,23.36,WNW,288,4.0,7.6,37,0.00,,---,0.00,VWS V14.00,2013-03-04 17:01:00,
2013-03-04 10:06:00,48.2,23.2,23.36,NW,311,5.4,6.3,37,0.00,,---,0.00,VWS V14.00,2013-03-04 17:06:00,
2013-03-04 10:11:00,48.0,23.0,23.36,WSW,250,5.4,5.8,37,0.00,,---,0.00,VWS V14.00,2013-03-04 17:11:00,
2013-03-04 10:16:00,48.2,23.2,23.36,NNW,329,4.0,9.6,37,0.00,,---,0.00,VWS V14.00,2013-03-04 17:16:00,
2013-03-04 10:21:00,47.7,22.7,23.36,West,264,3.6,4.9,37,0.00,,---,0.00,VWS V14.00,2013-03-04 17:21:00,
2013-03-04 10:27:00,47.1,22.2,23.36,NW,319,3.1,4.0,37,0.00,,---,0.00,VWS V14.00,2013-03-04 17:27:00,
2013-03-04 10:32:00,46.9,22.0,23.36,NW,311,4.9,5.4,37,0.00,,---,0.00,VWS V14.00,2013-03-04 17:32:00,
2013-03-04 10:37:00,47.3,22.4,23.36,WSW,243,4.0,5.8,37,0.00,,---,0.00,VWS V14.00,2013-03-04 17:37:00,
2013-03-04 10:42:00,48.0,23.0,23.36,NW,318,5.8,6.3,37,0.00,,---,0.00,VWS V14.00,2013-03-04 17:42:00,
2013-03-04 10:47:00,48.2,23.2,23.36,NNW,331,4.0,4.0,37,0.00,,---,0.00,VWS V14.00,2013-03-04 17:47:00,
2013-03-04 10:52:00,48.7,23.6,23.36,West,279,5.8,6.3,37,0.00,,---,0.00,VWS V14.00,2013-03-04 17:52:00,
2013-03-04 10:57:00,48.7,23.6,23.36,West,259,3.6,5.4,37,0.00,,---,0.00,VWS V14.00,2013-03-04 17:57:00,
2013-03-04 11:02:00,48.2,23.2,23.36,NW,309,4.0,5.8,37,0.00,,---,0.00,VWS V14.00,2013-03-04 18:02:00,
2013-03-04 11:07:00,48.0,23.0,23.36,WSW,257,5.8,5.8,37,0.00,,---,0.00,VWS V14.00,2013-03-04 18:07:00,
2013-03-04 11:12:00,47.5,22.5,23.36,WSW,252,4.0,7.6,37,0.00,,---,0.00,VWS V14.00,2013-03-04 18:12:00,
2013-03-04 11:17:00,47.1,22.2,23.36,NW,326,4.9,4.9,37,0.00,,---,0.00,VWS V14.00,2013-03-04 18:17:00,
2013-03-04 11:22:00,48.6,23.5,23.36,SW,218,5.4,7.6,37,0.00,,---,0.00,VWS V14.00,2013-03-04 18:22:00,
2013-03-04 11:27:00,50.4,25.1,23.36,West,274,4.0,4.0,37,0.00,,---,0.00,VWS V14.00,2013-03-04 18:27:00,
2013-03-04 11:29:00,51.3,25.9,23.36,NW,305,4.0,6.3,37,0.00,,---,0.00,VWS V14.00,2013-03-04 18:29:00,
2013-03-04 11:30:00,51.4,26.0,23.36,WNW,290,2.7,6.3,37,0.00,,---,0.00,VWS V14.00,2013-03-04 18:30:00,
2013-03-04 11:31:00,51.8,25.7,23.36,WNW,285,5.8,6.3,36,0.00,,---,0.00,VWS V14.00,2013-03-04 18:31:00,
2013-03-04 11:36:00,54.5,28.1,23.36,WSW,254,6.3,6.3,36,0.00,,---,0.00,VWS V14.00,2013-03-04 18:36:00,
2013-03-04 11:41:00,56.8,29.5,23.36,South,181,3.1,4.9,35,0.00,,---,0.00,VWS V14.00,2013-03-04 18:41:00,
2013-03-04 11:46:00,57.0,29.7,23.36,WSW,255,4.0,5.4,35,0.00,,---,0.00,VWS V14.00,2013-03-04 18:46:00,
2013-03-04 11:51:00,56.1,28.9,23.36,SW,225,3.1,3.6,35,0.00,,---,0.00,VWS V14.00,2013-03-04 18:51:00,
2013-03-04 11:56:00,54.9,28.4,23.36,WNW,284,4.0,4.0,36,0.00,,---,0.00,VWS V14.00,2013-03-04 18:56:00,
2013-03-04 12:01:00,53.8,27.5,23.39,WNW,288,3.6,3.6,36,0.00,,---,0.00,VWS V14.00,2013-03-04 19:01:00,
2013-03-04 12:06:00,52.9,26.7,23.39,NNW,341,4.9,7.2,36,0.00,,---,0.00,VWS V14.00,2013-03-04 19:06:00,
2013-03-04 12:11:00,52.7,26.5,23.36,NW,317,5.8,7.6,36,0.00,,---,0.00,VWS V14.00,2013-03-04 19:11:00,
2013-03-04 12:16:00,52.9,26.7,23.36,West,280,8.1,8.1,36,0.00,,---,0.00,VWS V14.00,2013-03-04 19:16:00,
2013-03-04 12:22:00,54.0,27.6,23.36,NW,305,6.3,6.3,36,0.00,,---,0.00,VWS V14.00,2013-03-04 19:22:00,
2013-03-04 12:27:00,54.5,28.1,23.36,NW,312,7.6,7.6,36,0.00,,---,0.00,VWS V14.00,2013-03-04 19:27:00,
2013-03-04 12:32:00,55.0,28.6,23.36,WNW,302,5.8,5.8,36,0.00,,---,0.00,VWS V14.00,2013-03-04 19:32:00,
2013-03-04 12:37:00,54.9,28.4,23.36,West,278,8.7,8.7,36,0.00,,---,0.00,VWS V14.00,2013-03-04 19:37:00,
2013-03-04 12:42:00,54.1,27.8,23.39,SW,222,4.0,7.2,36,0.00,,---,0.00,VWS V14.00,2013-03-04 19:42:00,
2013-03-04 12:47:00,55.0,28.6,23.39,SW,231,3.6,5.4,36,0.00,,---,0.00,VWS V14.00,2013-03-04 19:47:00,
2013-03-04 12:52:00,57.0,29.7,23.39,West,269,8.3,8.7,35,0.00,,---,0.00,VWS V14.00,2013-03-04 19:52:00,
2013-03-04 12:57:00,58.3,30.8,23.36,WSW,257,5.8,8.1,35,0.00,,---,0.00,VWS V14.00,2013-03-04 19:57:00,
2013-03-04 13:02:00,58.8,31.2,23.36,SW,235,2.7,12.3,35,0.00,,---,0.00,VWS V14.00,2013-03-04 20:02:00,
2013-03-04 13:07:00,59.2,31.6,23.36,WNW,295,3.1,6.7,35,0.00,,---,0.00,VWS V14.00,2013-03-04 20:07:00,
2013-03-04 13:13:00,59.4,31.7,23.36,West,271,7.6,8.3,35,0.00,,---,0.00,VWS V14.00,2013-03-04 20:13:00,
2013-03-04 13:18:00,59.4,31.7,23.36,NW,317,6.3,6.3,35,0.00,,---,0.00,VWS V14.00,2013-03-04 20:18:00,
2013-03-04 13:23:00,58.5,30.9,23.36,NNW,343,5.8,9.6,35,0.00,,---,0.00,VWS V14.00,2013-03-04 20:23:00,
2013-03-04 13:28:00,57.9,30.5,23.36,NW,315,2.7,5.8,35,0.00,,---,0.00,VWS V14.00,2013-03-04 20:28:00,
2013-03-04 13:33:00,57.6,30.1,23.36,WNW,299,7.6,7.6,35,0.00,,---,0.00,VWS V14.00,2013-03-04 20:33:00,
2013-03-04 13:38:00,56.8,29.5,23.36,WSW,244,3.6,3.6,35,0.00,,---,0.00,VWS V14.00,2013-03-04 20:38:00,
2013-03-04 13:43:00,56.1,28.9,23.36,NW,321,3.6,8.3,35,0.00,,---,0.00,VWS V14.00,2013-03-04 20:43:00,
2013-03-04 13:48:00,55.0,28.6,23.36,NNW,337,5.8,5.8,36,0.00,,---,0.00,VWS V14.00,2013-03-04 20:48:00,
2013-03-04 13:53:00,54.7,28.3,23.36,West,268,6.3,6.3,36,0.00,,---,0.00,VWS V14.00,2013-03-04 20:53:00,
2013-03-04 13:58:00,54.5,28.1,23.36,West,260,5.4,5.8,36,0.00,,---,0.00,VWS V14.00,2013-03-04 20:58:00,
2013-03-04 14:03:00,54.3,28.0,23.36,WNW,282,3.6,5.4,36,0.00,,---,0.00,VWS V14.00,2013-03-04 21:03:00,
2013-03-04 14:08:00,54.3,28.0,23.36,WSW,250,4.0,6.3,36,0.00,,---,0.00,VWS V14.00,2013-03-04 21:08:00,
2013-03-04 14:13:00,54.1,27.8,23.36,WSW,252,5.8,7.6,36,0.00,,---,0.00,VWS V14.00,2013-03-04 21:13:00,
2013-03-04 14:18:00,53.4,27.1,23.36,NW,310,3.6,3.6,36,0.00,,---,0.00,VWS V14.00,2013-03-04 21:18:00,
2013-03-04 14:24:00,53.4,27.1,23.36,WSW,249,8.7,8.7,36,0.00,,---,0.00,VWS V14.00,2013-03-04 21:24:00,
2013-03-04 14:29:00,53.6,27.3,23.36,North,0,10.5,10.5,36,0.00,,---,0.00,VWS V14.00,2013-03-04 21:29:00,
2013-03-04 14:34:00,53.4,27.1,23.36,SW,222,6.3,7.6,36,0.00,,---,0.00,VWS V14.00,2013-03-04 21:34:00,
2013-03-04 14:39:00,53.6,27.3,23.36,SW,222,4.0,5.4,36,0.00,,---,0.00,VWS V14.00,2013-03-04 21:39:00,
2013-03-04 14:44:00,54.1,27.8,23.36,SW,233,5.4,6.7,36,0.00,,---,0.00,VWS V14.00,2013-03-04 21:44:00,
2013-03-04 14:49:00,54.5,28.1,23.36,SW,227,5.8,5.8,36,0.00,,---,0.00,VWS V14.00,2013-03-04 21:49:00,
2013-03-04 14:54:00,54.5,28.1,23.36,WNW,299,5.8,9.2,36,0.00,,---,0.00,VWS V14.00,2013-03-04 21:54:00,
2013-03-04 14:59:00,54.5,28.1,23.36,WNW,285,6.3,6.3,36,0.00,,---,0.00,VWS V14.00,2013-03-04 21:59:00,
2013-03-04 15:04:00,54.5,28.1,23.36,SW,226,4.9,4.9,36,0.00,,---,0.00,VWS V14.00,2013-03-04 22:04:00,
2013-03-04 15:09:00,54.5,28.1,23.36,NNW,337,7.6,8.3,36,0.00,,---,0.00,VWS V14.00,2013-03-04 22:09:00,
2013-03-04 15:14:00,54.3,28.0,23.39,WNW,301,2.7,4.0,36,0.00,,---,0.00,VWS V14.00,2013-03-04 22:14:00,
2013-03-04 15:19:00,54.5,28.1,23.39,West,267,4.0,6.3,36,0.00,,---,0.00,VWS V14.00,2013-03-04 22:19:00,
2013-03-04 15:24:00,54.5,28.1,23.39,North,357,2.7,5.4,36,0.00,,---,0.00,VWS V14.00,2013-03-04 22:24:00,
2013-03-04 15:29:00,54.7,28.3,23.39,West,264,5.8,5.8,36,0.00,,---,0.00,VWS V14.00,2013-03-04 22:29:00,
2013-03-04 15:35:00,55.0,28.6,23.39,NW,317,4.0,4.9,36,0.00,,---,0.00,VWS V14.00,2013-03-04 22:35:00,
2013-03-04 15:40:00,55.0,28.6,23.39,WNW,286,6.3,8.3,36,0.00,,---,0.00,VWS V14.00,2013-03-04 22:40:00,
2013-03-04 15:45:00,55.2,28.8,23.39,NW,317,8.7,8.7,36,0.00,,---,0.00,VWS V14.00,2013-03-04 22:45:00,
2013-03-04 15:50:00,55.4,28.2,23.39,NNW,332,5.8,5.8,35,0.00,,---,0.00,VWS V14.00,2013-03-04 22:50:00,
2013-03-04 15:55:00,55.8,28.5,23.39,NW,314,0.0,3.1,35,0.00,,---,0.00,VWS V14.00,2013-03-04 22:55:00,
2013-03-04 16:00:00,55.9,28.7,23.39,NW,308,8.7,8.7,35,0.00,,---,0.00,VWS V14.00,2013-03-04 23:00:00,
2013-03-04 16:05:00,56.1,28.9,23.39,SW,231,5.4,10.5,35,0.00,,---,0.00,VWS V14.00,2013-03-04 23:05:00,
2013-03-04 16:10:00,55.9,28.7,23.39,WNW,302,8.1,8.1,35,0.00,,---,0.00,VWS V14.00,2013-03-04 23:10:00,
2013-03-04 16:15:00,56.5,29.2,23.39,SW,221,5.4,5.4,35,0.00,,---,0.00,VWS V14.00,2013-03-04 23:15:00,
2013-03-04 16:20:00,56.8,29.5,23.39,WNW,296,8.1,10.1,35,0.00,,---,0.00,VWS V14.00,2013-03-04 23:20:00,
2013-03-04 16:26:00,57.6,30.1,23.39,SW,229,2.7,6.3,35,0.00,,---,0.00,VWS V14.00,2013-03-04 23:26:00,
2013-03-04 16:31:00,57.9,30.5,23.39,North,0,4.9,5.4,35,0.00,,---,0.00,VWS V14.00,2013-03-04 23:31:00,
2013-03-04 16:36:00,57.7,30.3,23.39,WNW,295,7.6,7.6,35,0.00,,---,0.00,VWS V14.00,2013-03-04 23:36:00,
2013-03-04 16:41:00,57.7,30.3,23.39,North,3,3.6,3.6,35,0.00,,---,0.00,VWS V14.00,2013-03-04 23:41:00,
2013-03-04 16:46:00,57.9,30.5,23.42,NW,312,3.1,3.6,35,0.00,,---,0.00,VWS V14.00,2013-03-04 23:46:00,
2013-03-04 16:51:00,58.1,30.6,23.42,WSW,253,5.8,6.3,35,0.00,,---,0.00,VWS V14.00,2013-03-04 23:51:00,
2013-03-04 16:56:00,58.3,30.8,23.42,SW,231,5.8,5.8,35,0.00,,---,0.00,VWS V14.00,2013-03-04 23:56:00,
2013-03-04 17:01:00,57.9,30.5,23.42,NW,306,3.6,5.4,35,0.00,,---,0.00,VWS V14.00,2013-03-05 00:01:00,
2013-03-04 17:06:00,57.6,30.1,23.42,NW,321,0.0,2.2,35,0.00,,---,0.00,VWS V14.00,2013-03-05 00:06:00,
2013-03-04 17:11:00,57.2,29.8,23.42,WSW,256,4.0,4.0,35,0.00,,---,0.00,VWS V14.00,2013-03-05 00:11:00,
2013-03-04 17:16:00,56.7,29.3,23.42,NW,305,3.6,7.6,35,0.00,,---,0.00,VWS V14.00,2013-03-05 00:16:00,
2013-03-04 17:22:00,55.9,28.7,23.42,West,266,3.1,6.3,35,0.00,,---,0.00,VWS V14.00,2013-03-05 00:22:00,
2013-03-04 17:27:00,54.9,28.4,23.42,WSW,250,3.1,5.8,36,0.00,,---,0.00,VWS V14.00,2013-03-05 00:27:00,
2013-03-04 17:32:00,54.1,27.8,23.42,NNW,339,3.6,3.6,36,0.00,,---,0.00,VWS V14.00,2013-03-05 00:32:00,
2013-03-04 17:37:00,53.2,27.0,23.42,WNW,284,2.7,4.0,36,0.00,,---,0.00,VWS V14.00,2013-03-05 00:37:00,
2013-03-04 17:42:00,52.5,26.4,23.42,SW,232,3.1,3.1,36,0.00,,---,0.00,VWS V14.00,2013-03-05 00:42:00,
2013-03-04 17:47:00,51.8,25.7,23.42,South,190,4.5,4.5,36,0.00,,---,0.00,VWS V14.00,2013-03-05 00:47:00,
2013-03-04 17:52:00,51.1,25.7,23.42,SW,226,2.7,3.6,37,0.00,,---,0.00,VWS V14.00,2013-03-05 00:52:00,
2013-03-04 17:57:00,50.4,25.1,23.45,WNW,292,2.2,3.6,37,0.00,,---,0.00,VWS V14.00,2013-03-05 00:57:00,
2013-03-04 18:02:00,49.6,24.5,23.45,WNW,302,0.0,0.0,37,0.00,,---,0.00,VWS V14.00,2013-03-05 01:02:00,
2013-03-04 18:07:00,49.1,24.0,23.45,WNW,302,3.6,5.4,37,0.00,,---,0.00,VWS V14.00,2013-03-05 01:07:00,
2013-03-04 18:12:00,48.6,23.5,23.45,NNW,336,4.5,4.5,37,0.00,,---,0.00,VWS V14.00,2013-03-05 01:12:00,
2013-03-04 18:18:00,47.8,22.9,23.45,WNW,291,3.6,4.0,37,0.00,,---,0.00,VWS V14.00,2013-03-05 01:18:00,
2013-03-04 18:23:00,47.3,22.4,23.45,WNW,300,4.9,6.3,37,0.00,,---,0.00,VWS V14.00,2013-03-05 01:23:00,
2013-03-04 18:28:00,46.8,21.9,23.45,West,269,5.4,6.3,37,0.00,,---,0.00,VWS V14.00,2013-03-05 01:28:00,
2013-03-04 18:33:00,46.4,21.6,23.45,WNW,291,3.1,3.1,37,0.00,,---,0.00,VWS V14.00,2013-03-05 01:33:00,
2013-03-04 18:38:00,45.7,21.5,23.45,NW,307,0.0,0.0,38,0.00,,---,0.00,VWS V14.00,2013-03-05 01:38:00,
2013-03-04 18:43:00,45.1,21.1,23.45,NW,313,0.0,0.0,38,0.00,,---,0.00,VWS V14.00,2013-03-05 01:43:00,
2013-03-04 18:48:00,44.4,20.4,23.45,NW,312,0.0,0.0,38,0.00,,---,0.00,VWS V14.00,2013-03-05 01:48:00,
2013-03-04 18:53:00,43.9,19.9,23.45,NW,309,0.0,0.0,38,0.00,,---,0.00,VWS V14.00,2013-03-05 01:53:00,
2013-03-04 18:58:00,43.3,19.5,23.45,NNW,327,0.0,0.0,38,0.00,,---,0.00,VWS V14.00,2013-03-05 01:58:00,
2013-03-04 19:03:00,43.0,19.1,23.45,NW,306,0.0,0.0,38,0.00,,---,0.00,VWS V14.00,2013-03-05 02:03:00,
2013-03-04 19:08:00,42.3,19.1,23.45,NW,306,0.0,0.0,39,0.00,,---,0.00,VWS V14.00,2013-03-05 02:08:00,
2013-03-04 19:13:00,41.7,18.6,23.45,NW,306,0.0,0.0,39,0.00,,---,0.00,VWS V14.00,2013-03-05 02:13:00,
2013-03-04 19:19:00,41.0,18.0,23.45,NW,306,0.0,0.0,39,0.00,,---,0.00,VWS V14.00,2013-03-05 02:19:00,
2013-03-04 19:24:00,40.3,17.3,23.45,NW,306,0.0,0.0,39,0.00,,---,0.00,VWS V14.00,2013-03-05 02:24:00,
2013-03-04 19:29:00,39.6,16.7,23.48,NW,306,0.0,0.0,39,0.00,,---,0.00,VWS V14.00,2013-03-05 02:29:00,
2013-03-04 19:34:00,38.8,16.0,23.48,NW,306,0.0,0.0,39,0.00,,---,0.00,VWS V14.00,2013-03-05 02:34:00,
2013-03-04 19:39:00,38.3,15.5,23.48,NW,306,0.0,0.0,39,0.00,,---,0.00,VWS V14.00,2013-03-05 02:39:00,
2013-03-04 19:44:00,37.6,14.9,23.48,NW,306,0.0,0.0,39,0.00,,---,0.00,VWS V14.00,2013-03-05 02:44:00,
2013-03-04 19:49:00,37.0,15.0,23.48,NW,306,0.0,0.0,40,0.00,,---,0.00,VWS V14.00,2013-03-05 02:49:00,
2013-03-04 19:54:00,36.7,14.6,23.48,NW,306,0.0,0.0,40,0.00,,---,0.00,VWS V14.00,2013-03-05 02:54:00,
2013-03-04 19:59:00,36.1,14.2,23.48,NW,306,0.0,0.0,40,0.00,,---,0.00,VWS V14.00,2013-03-05 02:59:00,
2013-03-04 20:04:00,35.8,13.8,23.48,NW,306,0.0,0.0,40,0.00,,---,0.00,VWS V14.00,2013-03-05 03:04:00,
2013-03-04 20:09:00,35.4,13.5,23.48,NW,306,0.0,0.0,40,0.00,,---,0.00,VWS V14.00,2013-03-05 03:09:00,
2013-03-04 20:15:00,35.1,13.2,23.48,NW,306,0.0,0.0,40,0.00,,---,0.00,VWS V14.00,2013-03-05 03:15:00,
2013-03-04 20:20:00,34.7,12.9,23.48,NW,306,0.0,0.0,40,0.00,,---,0.00,VWS V14.00,2013-03-05 03:20:00,
2013-03-04 20:25:00,34.5,12.7,23.48,NW,306,0.0,0.0,40,0.00,,---,0.00,VWS V14.00,2013-03-05 03:25:00,
2013-03-04 20:30:00,34.2,12.4,23.48,NW,306,0.0,0.0,40,0.00,,---,0.00,VWS V14.00,2013-03-05 03:30:00,
2013-03-04 20:35:00,33.8,12.1,23.48,NW,306,0.0,0.0,40,0.00,,---,0.00,VWS V14.00,2013-03-05 03:35:00,
2013-03-04 20:40:00,33.6,12.4,23.48,NW,306,0.0,0.0,41,0.00,,---,0.00,VWS V14.00,2013-03-05 03:40:00,
2013-03-04 20:45:00,33.4,12.3,23.51,NW,306,0.0,0.0,41,0.00,,---,0.00,VWS V14.00,2013-03-05 03:45:00,
2013-03-04 20:50:00,33.1,12.0,23.51,NW,306,0.0,0.0,41,0.00,,---,0.00,VWS V14.00,2013-03-05 03:50:00,
2013-03-04 20:55:00,32.7,11.6,23.51,NW,306,0.0,0.0,41,0.00,,---,0.00,VWS V14.00,2013-03-05 03:55:00,
2013-03-04 21:00:00,32.5,11.5,23.51,NW,306,0.0,0.0,41,0.00,,---,0.00,VWS V14.00,2013-03-05 04:00:00,
2013-03-04 21:05:00,32.2,11.1,23.51,NW,306,0.0,0.0,41,0.00,,---,0.00,VWS V14.00,2013-03-05 04:05:00,
2013-03-04 21:11:00,31.8,10.8,23.51,NW,306,0.0,0.0,41,0.00,,---,0.00,VWS V14.00,2013-03-05 04:11:00,
2013-03-04 21:16:00,31.5,10.5,23.51,NW,306,0.0,0.0,41,0.00,,---,0.00,VWS V14.00,2013-03-05 04:16:00,
2013-03-04 21:21:00,31.1,10.2,23.51,NW,306,0.0,0.0,41,0.00,,---,0.00,VWS V14.00,2013-03-05 04:21:00,
2013-03-04 21:26:00,30.7,9.8,23.51,NW,306,0.0,0.0,41,0.00,,---,0.00,VWS V14.00,2013-03-05 04:26:00,
2013-03-04 21:31:00,30.6,9.7,23.51,NW,306,0.0,0.0,41,0.00,,---,0.00,VWS V14.00,2013-03-05 04:31:00,
2013-03-04 21:36:00,30.2,9.4,23.51,NW,306,0.0,0.0,41,0.00,,---,0.00,VWS V14.00,2013-03-05 04:36:00,
2013-03-04 21:41:00,30.2,9.4,23.51,NW,306,0.0,0.0,41,0.00,,---,0.00,VWS V14.00,2013-03-05 04:41:00,
2013-03-04 21:46:00,29.8,9.0,23.51,NW,306,0.0,0.0,41,0.00,,---,0.00,VWS V14.00,2013-03-05 04:46:00,
2013-03-04 21:51:00,29.7,8.9,23.51,NW,306,0.0,0.0,41,0.00,,---,0.00,VWS V14.00,2013-03-05 04:51:00,
2013-03-04 21:56:00,29.5,8.7,23.51,NW,306,0.0,0.0,41,0.00,,---,0.00,VWS V14.00,2013-03-05 04:56:00,
2013-03-04 22:00:00,29.3,8.5,23.51,NW,306,0.0,0.0,41,0.00,,---,0.00,VWS V14.00,2013-03-05 05:00:00,
2013-03-04 22:03:00,29.1,8.4,23.51,NW,306,0.0,0.0,41,0.00,,---,0.00,VWS V14.00,2013-03-05 05:03:00,
2013-03-04 22:08:00,28.9,8.2,23.51,NW,306,0.0,0.0,41,0.00,,---,0.00,VWS V14.00,2013-03-05 05:08:00,
2013-03-04 22:13:00,28.8,8.0,23.51,NW,306,0.0,0.0,41,0.00,,---,0.00,VWS V14.00,2013-03-05 05:13:00,
2013-03-04 22:18:00,28.6,7.9,23.51,NW,306,0.0,0.0,41,0.00,,---,0.00,VWS V14.00,2013-03-05 05:18:00,
2013-03-04 22:23:00,28.6,7.9,23.51,NW,306,0.0,0.0,41,0.00,,---,0.00,VWS V14.00,2013-03-05 05:23:00,
2013-03-04 22:28:00,28.2,7.6,23.54,NW,306,0.0,0.0,41,0.00,,---,0.00,VWS V14.00,2013-03-05 05:28:00,
2013-03-04 22:33:00,28.0,7.4,23.54,NW,306,0.0,0.0,41,0.00,,---,0.00,VWS V14.00,2013-03-05 05:33:00,
2013-03-04 22:38:00,27.9,7.2,23.54,NW,306,0.0,0.0,41,0.00,,---,0.00,VWS V14.00,2013-03-05 05:38:00,
2013-03-04 22:43:00,27.9,7.2,23.54,NW,306,0.0,0.0,41,0.00,,---,0.00,VWS V14.00,2013-03-05 05:43:00,
2013-03-04 22:48:00,27.7,7.1,23.54,NW,306,0.0,0.0,41,0.00,,---,0.00,VWS V14.00,2013-03-05 05:48:00,
2013-03-04 22:53:00,27.5,6.9,23.54,NW,306,0.0,0.0,41,0.00,,---,0.00,VWS V14.00,2013-03-05 05:53:00,
2013-03-04 22:58:00,27.5,6.9,23.54,NW,306,0.0,0.0,41,0.00,,---,0.00,VWS V14.00,2013-03-05 05:58:00,
2013-03-04 23:03:00,27.3,6.7,23.54,NW,306,0.0,0.0,41,0.00,,---,0.00,VWS V14.00,2013-03-05 06:03:00,
2013-03-04 23:08:00,27.1,6.6,23.54,NW,306,0.0,0.0,41,0.00,,---,0.00,VWS V14.00,2013-03-05 06:08:00,
2013-03-04 23:13:00,27.1,6.6,23.54,NW,306,0.0,0.0,41,0.00,,---,0.00,VWS V14.00,2013-03-05 06:13:00,
2013-03-04 23:18:00,27.0,6.4,23.54,NW,306,0.0,0.0,41,0.00,,---,0.00,VWS V14.00,2013-03-05 06:18:00,
2013-03-04 23:23:00,27.0,6.4,23.54,NW,306,0.0,0.0,41,0.00,,---,0.00,VWS V14.00,2013-03-05 06:23:00,
2013-03-04 23:28:00,26.8,6.2,23.54,NW,306,0.0,0.0,41,0.00,,---,0.00,VWS V14.00,2013-03-05 06:28:00,
2013-03-04 23:33:00,26.6,6.6,23.54,NW,306,0.0,0.0,42,0.00,,---,0.00,VWS V14.00,2013-03-05 06:33:00,
2013-03-04 23:39:00,26.6,6.6,23.54,NW,306,0.0,0.0,42,0.00,,---,0.00,VWS V14.00,2013-03-05 06:39:00,
2013-03-04 23:44:00,26.4,6.4,23.54,NW,306,0.0,0.0,42,0.00,,---,0.00,VWS V14.00,2013-03-05 06:44:00,
2013-03-04 23:49:00,26.2,6.3,23.54,NW,306,0.0,0.0,42,0.00,,---,0.00,VWS V14.00,2013-03-05 06:49:00,
2013-03-04 23:54:00,26.2,6.3,23.54,NW,306,0.0,0.0,42,0.00,,---,0.00,VWS V14.00,2013-03-05 06:54:00,
2013-03-04 23:59:00,26.1,6.1,23.54,NW,306,0.0,0.0,42,0.00,,---,0.00,VWS V14.00,2013-03-05 06:59:00,